,,,PA_Meas_PMT16A,,PR_Meas_QMR101_102,,RH_Meas_QMH101,,SR_Meas_QMS101,,TA_Meas_QMH101,,GenWind,,GenWind,
date,time,status,PA,status,PR,status,RH,status,SR,status,TA,status,DirAvg,status,SpdAvg,
2011-01-19, 00:00:05,VALID,1000.64,VALID,0,VALID,91.8911,VALID,0,VALID,23.4866,VALID,19,VALID,0,
2011-01-19, 00:01:05,VALID,1000.64,VALID,0,VALID,91.9217,VALID,0,VALID,23.4866,VALID,19,VALID,0,
2011-01-19, 00:02:05,VALID,1000.63,VALID,0,VALID,91.9369,VALID,0,VALID,23.4866,VALID,19,VALID,0,
2011-01-19, 00:03:05,VALID,1000.61,VALID,0,VALID,91.9598,VALID,0,VALID,23.4866,VALID,19,VALID,0.555078,
2011-01-19, 00:04:05,VALID,1000.59,VALID,0,VALID,91.9674,VALID,0,VALID,23.5061,VALID,19,VALID,0.573438,
2011-01-19, 00:05:05,VALID,1000.56,VALID,0,VALID,91.9827,VALID,0,VALID,23.4848,VALID,19,VALID,0.438672,
2011-01-19, 00:06:05,VALID,1000.51,VALID,0,VALID,91.9903,VALID,0,VALID,23.5061,VALID,31,VALID,0.791797,
2011-01-19, 00:07:05,VALID,1000.49,VALID,0,VALID,91.9903,VALID,0,VALID,23.5256,VALID,59,VALID,0.903516,
2011-01-19, 00:08:05,VALID,1000.48,VALID,0,VALID,91.9751,VALID,0,VALID,23.5256,VALID,55,VALID,0.616016,
2011-01-19, 00:09:05,VALID,1000.42,VALID,0,VALID,91.9522,VALID,0,VALID,23.5256,VALID,31,VALID,0.948047,
2011-01-19, 00:10:05,VALID,1000.41,VALID,0,VALID,91.9522,VALID,0,VALID,23.5256,VALID,31,VALID,0.673047,
2011-01-19, 00:11:05,VALID,1000.35,VALID,0,VALID,91.8988,VALID,0,VALID,23.5256,VALID,26,VALID,0.775391,
2011-01-19, 00:12:05,VALID,1000.34,VALID,0,VALID,91.8988,VALID,0.112286,VALID,23.5043,VALID,26,VALID,0.846094,
2011-01-19, 00:13:05,VALID,1000.32,VALID,0,VALID,91.8683,VALID,0,VALID,23.5043,VALID,26,VALID,0.717578,
2011-01-19, 00:14:05,VALID,1000.31,VALID,0,VALID,91.8377,VALID,0,VALID,23.5043,VALID,26,VALID,0.798828,
2011-01-19, 00:15:05,VALID,1000.28,VALID,0,VALID,91.8377,VALID,0,VALID,23.5043,VALID,26,VALID,0.548828,
2011-01-19, 00:16:05,VALID,1000.24,VALID,0,VALID,91.8377,VALID,0,VALID,23.5256,VALID,26,VALID,0.354297,
2011-01-19, 00:17:05,VALID,1000.24,VALID,0,VALID,91.8148,VALID,0.112286,VALID,23.5043,VALID,26,VALID,0.472266,
2011-01-19, 00:18:05,VALID,1000.22,VALID,0.5,VALID,91.8148,VALID,0,VALID,23.5256,VALID,26,VALID,0.428906,
2011-01-19, 00:19:04,VALID,1000.21,VALID,0,VALID,91.8377,VALID,0,VALID,23.5256,VALID,26,VALID,0.229297,
2011-01-19, 00:20:04,VALID,1000.21,VALID,0,VALID,91.8606,VALID,0,VALID,23.5256,VALID,26,VALID,0.422266,
2011-01-19, 00:21:04,VALID,1000.14,VALID,0,VALID,91.8988,VALID,0,VALID,23.5256,VALID,26,VALID,0.482812,
2011-01-19, 00:22:04,VALID,1000.12,VALID,0,VALID,91.914,VALID,0,VALID,23.5238,VALID,26,VALID,0.361328,
2011-01-19, 00:23:04,VALID,1000.09,VALID,0,VALID,91.9369,VALID,0.112286,VALID,23.5043,VALID,26,VALID,0.266406,
2011-01-19, 00:24:04,VALID,1000.04,VALID,0,VALID,91.9598,VALID,0.112286,VALID,23.5238,VALID,26,VALID,0.160938,
2011-01-19, 00:25:04,VALID,1000.01,VALID,0,VALID,91.9903,VALID,0,VALID,23.5238,VALID,26,VALID,0.1375,
2011-01-19, 00:26:04,VALID,999.977,VALID,0,VALID,91.9827,VALID,0.112286,VALID,23.5043,VALID,26,VALID,0,
2011-01-19, 00:27:04,VALID,999.956,VALID,0,VALID,92.0056,VALID,0.112286,VALID,23.5043,VALID,26,VALID,0,
2011-01-19, 00:28:04,VALID,999.965,VALID,0,VALID,92.0209,VALID,0,VALID,23.5043,VALID,26,VALID,0.0234375,
2011-01-19, 00:29:04,VALID,999.94,VALID,0,VALID,92.059,VALID,0,VALID,23.5043,VALID,26,VALID,0.308203,
2011-01-19, 00:30:04,VALID,999.967,VALID,0,VALID,92.0743,VALID,0,VALID,23.5043,VALID,26,VALID,0.337109,
2011-01-19, 00:31:04,VALID,999.991,VALID,0,VALID,92.1048,VALID,0,VALID,23.4848,VALID,26,VALID,0.400391,
2011-01-19, 00:32:04,VALID,999.966,VALID,0,VALID,92.0971,VALID,0,VALID,23.4848,VALID,26,VALID,0.303125,
2011-01-19, 00:33:04,VALID,999.955,VALID,0,VALID,92.1353,VALID,0,VALID,23.4848,VALID,26,VALID,0.153125,
2011-01-19, 00:34:04,VALID,999.934,VALID,0,VALID,92.1429,VALID,0,VALID,23.4848,VALID,26,VALID,0.0414063,
2011-01-19, 00:35:04,VALID,999.912,VALID,0,VALID,92.1277,VALID,0,VALID,23.4866,VALID,26,VALID,0,
2011-01-19, 00:36:04,VALID,999.911,VALID,0,VALID,92.1658,VALID,0,VALID,23.5061,VALID,26,VALID,0.242969,
2011-01-19, 00:37:04,VALID,999.883,VALID,0,VALID,92.1734,VALID,0,VALID,23.4653,VALID,26,VALID,0.214453,
2011-01-19, 00:38:04,VALID,999.872,VALID,0,VALID,92.1734,VALID,0,VALID,23.4848,VALID,26,VALID,0.362109,
2011-01-19, 00:39:04,VALID,999.899,VALID,0,VALID,92.1811,VALID,0,VALID,23.4866,VALID,26,VALID,0.249219,
2011-01-19, 00:40:04,VALID,999.89,VALID,0,VALID,92.1963,VALID,0,VALID,23.4653,VALID,26,VALID,0.221484,
2011-01-19, 00:41:04,VALID,999.92,VALID,0,VALID,92.2192,VALID,0,VALID,23.4866,VALID,26,VALID,0.0886719,
2011-01-19, 00:42:04,VALID,999.903,VALID,0,VALID,92.2268,VALID,0,VALID,23.4848,VALID,26,VALID,0,
2011-01-19, 00:43:04,VALID,999.931,VALID,0,VALID,92.2421,VALID,0,VALID,23.4866,VALID,26,VALID,0,
2011-01-19, 00:44:04,VALID,999.92,VALID,0,VALID,92.2955,VALID,0,VALID,23.5061,VALID,26,VALID,0.236328,
2011-01-19, 00:45:04,VALID,999.897,VALID,0,VALID,92.2955,VALID,0,VALID,23.5061,VALID,26,VALID,0.317187,
2011-01-19, 00:46:04,VALID,999.88,VALID,0,VALID,92.3031,VALID,0,VALID,23.4848,VALID,26,VALID,0.544922,
2011-01-19, 00:47:04,VALID,999.844,VALID,0,VALID,92.3413,VALID,0,VALID,23.4848,VALID,65,VALID,0.846094,
2011-01-19, 00:48:04,VALID,999.862,VALID,0,VALID,92.3718,VALID,0,VALID,23.5043,VALID,70,VALID,1.04766,
2011-01-19, 00:49:04,VALID,999.842,VALID,0,VALID,92.3794,VALID,0,VALID,23.5238,VALID,70,VALID,0.870313,
2011-01-19, 00:50:04,VALID,999.865,VALID,0,VALID,92.4176,VALID,0,VALID,23.5451,VALID,74,VALID,0.846484,
2011-01-19, 00:51:04,VALID,999.842,VALID,0,VALID,92.41,VALID,0.112286,VALID,23.5433,VALID,73,VALID,0.53125,
2011-01-19, 00:52:04,VALID,999.862,VALID,0,VALID,92.4176,VALID,0,VALID,23.5433,VALID,62,VALID,0.664453,
2011-01-19, 00:53:04,VALID,999.857,VALID,0,VALID,92.4328,VALID,0,VALID,23.5238,VALID,64,VALID,0.621484,
2011-01-19, 00:54:04,VALID,999.839,VALID,0,VALID,92.4023,VALID,0,VALID,23.5451,VALID,64,VALID,0.684375,
2011-01-19, 00:55:04,VALID,999.842,VALID,0,VALID,92.4176,VALID,0,VALID,23.5238,VALID,64,VALID,0.448828,
2011-01-19, 00:56:04,VALID,999.819,VALID,0,VALID,92.4405,VALID,0,VALID,23.5238,VALID,64,VALID,0.38125,
2011-01-19, 00:57:04,VALID,999.806,VALID,0,VALID,92.4176,VALID,0,VALID,23.5256,VALID,64,VALID,0.689062,
2011-01-19, 00:58:04,VALID,999.806,VALID,0,VALID,92.4252,VALID,0,VALID,23.5256,VALID,52,VALID,0.773047,
2011-01-19, 00:59:04,VALID,999.784,VALID,0,VALID,92.4176,VALID,0,VALID,23.5451,VALID,52,VALID,0.418359,
2011-01-19, 01:00:04,VALID,999.73,VALID,0,VALID,92.4252,VALID,0,VALID,23.5451,VALID,47,VALID,0.572656,
2011-01-19, 01:01:04,VALID,999.748,VALID,0,VALID,92.4176,VALID,0,VALID,23.5469,VALID,24,VALID,0.875781,
2011-01-19, 01:02:04,VALID,999.741,VALID,0,VALID,92.41,VALID,0,VALID,23.5274,VALID,8,VALID,0.684375,
2011-01-19, 01:03:04,VALID,999.707,VALID,0,VALID,92.4023,VALID,0,VALID,23.5469,VALID,8,VALID,0.774219,
2011-01-19, 01:04:04,VALID,999.718,VALID,0,VALID,92.4023,VALID,0,VALID,23.5469,VALID,8,VALID,1.07109,
2011-01-19, 01:05:04,VALID,999.702,VALID,0,VALID,92.4176,VALID,0,VALID,23.5664,VALID,11,VALID,0.846875,
2011-01-19, 01:06:04,VALID,999.696,VALID,0,VALID,92.4023,VALID,0,VALID,23.5859,VALID,315,VALID,0.751172,
2011-01-19, 01:07:04,VALID,999.699,VALID,0,VALID,92.41,VALID,0,VALID,23.5859,VALID,311,VALID,0.24375,
2011-01-19, 01:08:04,VALID,999.658,VALID,0,VALID,92.4252,VALID,0,VALID,23.6054,VALID,348,VALID,0.623828,
2011-01-19, 01:09:04,VALID,999.64,VALID,0,VALID,92.4328,VALID,0,VALID,23.625,VALID,296,VALID,0.670313,
2011-01-19, 01:10:04,VALID,999.628,VALID,0,VALID,92.4481,VALID,0,VALID,23.625,VALID,307,VALID,1.22344,
2011-01-19, 01:11:04,VALID,999.619,VALID,0,VALID,92.4328,VALID,0,VALID,23.625,VALID,303,VALID,1.07695,
2011-01-19, 01:12:04,VALID,999.584,VALID,0,VALID,92.4023,VALID,0,VALID,23.6409,VALID,321,VALID,0.492578,
2011-01-19, 01:13:04,VALID,999.58,VALID,0,VALID,92.3718,VALID,0,VALID,23.6232,VALID,314,VALID,0.962109,
2011-01-19, 01:14:04,VALID,999.533,VALID,0,VALID,92.3337,VALID,0,VALID,23.6427,VALID,313,VALID,1.00508,
2011-01-19, 01:15:04,VALID,999.571,VALID,0,VALID,92.2803,VALID,0,VALID,23.6622,VALID,341,VALID,1.11367,
2011-01-19, 01:16:04,VALID,999.533,VALID,0,VALID,92.1734,VALID,0,VALID,23.6409,VALID,340,VALID,1.19375,
2011-01-19, 01:17:04,VALID,999.539,VALID,0,VALID,92.1124,VALID,0,VALID,23.6799,VALID,337,VALID,1.70117,
2011-01-19, 01:18:04,VALID,999.557,VALID,0,VALID,92.0056,VALID,0,VALID,23.7012,VALID,329,VALID,1.27773,
2011-01-19, 01:19:04,VALID,999.557,VALID,0,VALID,91.8835,VALID,0,VALID,23.7207,VALID,327,VALID,1.56641,
2011-01-19, 01:20:04,VALID,999.568,VALID,0,VALID,91.7767,VALID,0,VALID,23.7189,VALID,286,VALID,1.23242,
2011-01-19, 01:21:04,VALID,999.555,VALID,0,VALID,91.647,VALID,0,VALID,23.7402,VALID,333,VALID,1.44258,
2011-01-19, 01:22:04,VALID,999.556,VALID,0,VALID,91.5554,VALID,0,VALID,23.7597,VALID,334,VALID,2.3457,
2011-01-19, 01:23:04,VALID,999.558,VALID,0,VALID,91.4257,VALID,0,VALID,23.7793,VALID,329,VALID,2.31406,
2011-01-19, 01:24:04,VALID,999.574,VALID,0,VALID,91.3418,VALID,0,VALID,23.7793,VALID,320,VALID,1.74922,
2011-01-19, 01:25:04,VALID,999.555,VALID,0,VALID,91.2503,VALID,0.112286,VALID,23.7775,VALID,318,VALID,2.1418,
2011-01-19, 01:26:04,VALID,999.579,VALID,0,VALID,91.1968,VALID,0,VALID,23.797,VALID,323,VALID,2.11992,
2011-01-19, 01:27:04,VALID,999.553,VALID,0,VALID,91.1511,VALID,0,VALID,23.8165,VALID,342,VALID,1.75352,
2011-01-19, 01:28:04,VALID,999.567,VALID,0,VALID,91.1358,VALID,0,VALID,23.8165,VALID,312,VALID,1.91797,
2011-01-19, 01:29:04,VALID,999.54,VALID,0,VALID,91.1587,VALID,0.112286,VALID,23.836,VALID,329,VALID,1.98008,
2011-01-19, 01:30:04,VALID,999.559,VALID,0,VALID,91.1968,VALID,0,VALID,23.836,VALID,324,VALID,2.0375,
2011-01-19, 01:31:04,VALID,999.536,VALID,0,VALID,91.1434,VALID,0,VALID,23.8555,VALID,324,VALID,2.3793,
2011-01-19, 01:32:04,VALID,999.565,VALID,0,VALID,91.0977,VALID,0,VALID,23.875,VALID,331,VALID,1.75156,
2011-01-19, 01:33:04,VALID,999.555,VALID,0,VALID,91.0443,VALID,0,VALID,23.8963,VALID,343,VALID,2.26055,
2011-01-19, 01:34:04,VALID,999.478,VALID,0,VALID,90.8459,VALID,0,VALID,23.9159,VALID,329,VALID,2.34336,
2011-01-19, 01:35:04,VALID,999.526,VALID,0,VALID,90.762,VALID,0,VALID,23.9336,VALID,326,VALID,1.90703,
2011-01-19, 01:36:04,VALID,999.482,VALID,0,VALID,90.6323,VALID,0,VALID,23.9336,VALID,328,VALID,3.55508,
2011-01-19, 01:37:04,VALID,999.447,VALID,0,VALID,90.4491,VALID,0,VALID,23.9744,VALID,344,VALID,2.81328,
2011-01-19, 01:38:04,VALID,999.449,VALID,0,VALID,90.3042,VALID,0,VALID,23.9744,VALID,327,VALID,3.17969,
2011-01-19, 01:39:04,VALID,999.499,VALID,0,VALID,90.2126,VALID,0,VALID,23.9939,VALID,337,VALID,1.8375,
2011-01-19, 01:40:04,VALID,999.49,VALID,0,VALID,90.205,VALID,0,VALID,23.9726,VALID,5,VALID,2.42188,
2011-01-19, 01:41:04,VALID,999.528,VALID,0,VALID,90.2737,VALID,0,VALID,23.9939,VALID,337,VALID,1.92695,
2011-01-19, 01:42:04,VALID,999.508,VALID,0,VALID,90.3194,VALID,0,VALID,23.9549,VALID,343,VALID,2.47227,
2011-01-19, 01:43:04,VALID,999.531,VALID,0,VALID,90.2813,VALID,0,VALID,23.8945,VALID,303,VALID,1.52617,
2011-01-19, 01:44:04,VALID,999.529,VALID,0.5,VALID,90.2737,VALID,0,VALID,23.8165,VALID,302,VALID,1.88711,
2011-01-19, 01:45:04,VALID,999.534,VALID,0,VALID,90.0982,VALID,0.112286,VALID,23.7579,VALID,302,VALID,1.94375,
2011-01-19, 01:46:04,VALID,999.566,VALID,0,VALID,90.0829,VALID,0,VALID,23.7189,VALID,324,VALID,1.14727,
2011-01-19, 01:47:04,VALID,999.556,VALID,0,VALID,90.0219,VALID,0,VALID,23.6817,VALID,290,VALID,2.19023,
2011-01-19, 01:48:04,VALID,999.543,VALID,0,VALID,89.9532,VALID,0,VALID,23.6622,VALID,322,VALID,1.22305,
2011-01-19, 01:49:04,VALID,999.545,VALID,0,VALID,89.9456,VALID,0,VALID,23.6036,VALID,307,VALID,1.03984,
2011-01-19, 01:50:04,VALID,999.559,VALID,0,VALID,90.0524,VALID,0,VALID,23.5841,VALID,328,VALID,0.809766,
2011-01-19, 01:51:04,VALID,999.533,VALID,0,VALID,90.1211,VALID,0,VALID,23.5451,VALID,308,VALID,1.49492,
2011-01-19, 01:52:04,VALID,999.518,VALID,0,VALID,90.266,VALID,0,VALID,23.5451,VALID,297,VALID,1.38008,
2011-01-19, 01:53:04,VALID,999.475,VALID,0,VALID,90.4644,VALID,0.112286,VALID,23.5043,VALID,309,VALID,0.770703,
2011-01-19, 01:54:04,VALID,999.453,VALID,0,VALID,90.4568,VALID,0,VALID,23.4458,VALID,292,VALID,1.64336,
2011-01-19, 01:55:04,VALID,999.427,VALID,0,VALID,90.3271,VALID,0,VALID,23.4475,VALID,259,VALID,1.16445,
2011-01-19, 01:56:04,VALID,999.428,VALID,0,VALID,90.266,VALID,0,VALID,23.428,VALID,327,VALID,1.06914,
2011-01-19, 01:57:04,VALID,999.411,VALID,0,VALID,90.1592,VALID,0,VALID,23.3677,VALID,316,VALID,0.934375,
2011-01-19, 01:58:04,VALID,999.399,VALID,0,VALID,89.3734,VALID,0,VALID,23.2897,VALID,307,VALID,2.44883,
2011-01-19, 01:59:04,VALID,999.373,VALID,0,VALID,88.9385,VALID,0,VALID,23.3287,VALID,319,VALID,1.13242,
2011-01-19, 02:00:04,VALID,999.346,VALID,0,VALID,89.03,VALID,0,VALID,23.3305,VALID,308,VALID,1.11211,
2011-01-19, 02:01:04,VALID,999.318,VALID,0.5,VALID,88.7172,VALID,0,VALID,23.2719,VALID,280,VALID,1.07305,
2011-01-19, 02:02:04,VALID,999.315,VALID,0,VALID,88.6562,VALID,0,VALID,23.2312,VALID,311,VALID,1.66797,
2011-01-19, 02:03:04,VALID,999.295,VALID,0,VALID,88.9156,VALID,0,VALID,23.2134,VALID,322,VALID,0.836328,
2011-01-19, 02:04:04,VALID,999.276,VALID,0,VALID,88.8927,VALID,0,VALID,23.1744,VALID,259,VALID,1.19531,
2011-01-19, 02:05:04,VALID,999.281,VALID,0,VALID,88.1068,VALID,0,VALID,23.1141,VALID,287,VALID,1.25352,
2011-01-19, 02:06:04,VALID,999.282,VALID,0,VALID,88.3052,VALID,0,VALID,23.1159,VALID,291,VALID,0.911719,
2011-01-19, 02:07:04,VALID,999.282,VALID,0,VALID,88.4197,VALID,0,VALID,23.0361,VALID,295,VALID,0.623438,
2011-01-19, 02:08:04,VALID,999.283,VALID,0,VALID,88.6638,VALID,0,VALID,23.0166,VALID,286,VALID,0.857813,
2011-01-19, 02:09:04,VALID,999.318,VALID,0,VALID,88.9995,VALID,0.112286,VALID,22.9776,VALID,306,VALID,0.510156,
2011-01-19, 02:10:04,VALID,999.307,VALID,0,VALID,89.1521,VALID,0.112286,VALID,22.9403,VALID,271,VALID,0.909766,
2011-01-19, 02:11:04,VALID,999.295,VALID,0,VALID,88.5799,VALID,0,VALID,22.88,VALID,219,VALID,0.407031,
2011-01-19, 02:12:04,VALID,999.316,VALID,0.5,VALID,88.763,VALID,0,VALID,22.8818,VALID,149,VALID,0.274219,
2011-01-19, 02:13:04,VALID,999.263,VALID,0,VALID,88.9919,VALID,0,VALID,22.8427,VALID,149,VALID,0.36875,
2011-01-19, 02:14:04,VALID,999.248,VALID,0.5,VALID,88.9919,VALID,0,VALID,22.7842,VALID,313,VALID,1.26836,
2011-01-19, 02:15:04,VALID,999.175,VALID,0,VALID,89.175,VALID,0,VALID,22.7452,VALID,11,VALID,0.651172,
2011-01-19, 02:16:04,VALID,999.184,VALID,0.5,VALID,89.5031,VALID,0,VALID,22.685,VALID,356,VALID,0.517187,
2011-01-19, 02:17:04,VALID,999.143,VALID,0,VALID,89.7091,VALID,0,VALID,22.6477,VALID,336,VALID,0.477344,
2011-01-19, 02:18:04,VALID,999.078,VALID,0,VALID,89.9532,VALID,0,VALID,22.6087,VALID,303,VALID,0.449219,
2011-01-19, 02:19:04,VALID,999.051,VALID,0.5,VALID,90.2203,VALID,0,VALID,22.5696,VALID,303,VALID,0.423828,
2011-01-19, 02:20:04,VALID,999.036,VALID,0,VALID,90.4339,VALID,0,VALID,22.5501,VALID,282,VALID,0.551562,
2011-01-19, 02:21:04,VALID,999.037,VALID,0,VALID,90.5865,VALID,0,VALID,22.5094,VALID,274,VALID,0.503125,
2011-01-19, 02:22:04,VALID,999.017,VALID,0.5,VALID,90.7696,VALID,0,VALID,22.5111,VALID,339,VALID,1.20898,
2011-01-19, 02:23:04,VALID,998.989,VALID,0,VALID,90.9069,VALID,0,VALID,22.4916,VALID,9,VALID,1.48164,
2011-01-19, 02:24:04,VALID,998.941,VALID,0,VALID,91.0595,VALID,0.112286,VALID,22.4721,VALID,18,VALID,1.37148,
2011-01-19, 02:25:04,VALID,998.926,VALID,0,VALID,91.1816,VALID,0,VALID,22.4331,VALID,18,VALID,1.17773,
2011-01-19, 02:26:04,VALID,998.929,VALID,0,VALID,91.2655,VALID,0.112286,VALID,22.3924,VALID,14,VALID,1.1293,
2011-01-19, 02:27:04,VALID,998.895,VALID,0,VALID,91.3723,VALID,0,VALID,22.3958,VALID,20,VALID,1.30195,
2011-01-19, 02:28:04,VALID,998.921,VALID,0,VALID,91.4257,VALID,0,VALID,22.3763,VALID,21,VALID,1.03477,
2011-01-19, 02:29:04,VALID,998.924,VALID,0,VALID,91.4715,VALID,0,VALID,22.3161,VALID,20,VALID,0.887891,
2011-01-19, 02:30:04,VALID,998.879,VALID,0,VALID,91.4944,VALID,0,VALID,22.3178,VALID,22,VALID,1.1125,
2011-01-19, 02:31:04,VALID,998.889,VALID,0,VALID,91.5173,VALID,0,VALID,22.3178,VALID,28,VALID,1.19961,
2011-01-19, 02:32:04,VALID,998.872,VALID,0.5,VALID,91.5478,VALID,0,VALID,22.2983,VALID,43,VALID,1.29844,
2011-01-19, 02:33:04,VALID,998.84,VALID,0,VALID,91.5936,VALID,0,VALID,22.2771,VALID,47,VALID,1.64961,
2011-01-19, 02:34:04,VALID,998.861,VALID,0,VALID,91.6317,VALID,0,VALID,22.2788,VALID,48,VALID,1.44609,
2011-01-19, 02:35:04,VALID,998.834,VALID,0,VALID,91.6699,VALID,0,VALID,22.2592,VALID,54,VALID,1.27695,
2011-01-19, 02:36:04,VALID,998.846,VALID,0,VALID,91.6775,VALID,0,VALID,22.2592,VALID,57,VALID,1.22422,
2011-01-19, 02:37:04,VALID,998.785,VALID,0,VALID,91.647,VALID,0,VALID,22.2592,VALID,58,VALID,0.947656,
2011-01-19, 02:38:04,VALID,998.796,VALID,0,VALID,91.6394,VALID,0,VALID,22.2397,VALID,62,VALID,0.710938,
2011-01-19, 02:39:04,VALID,998.777,VALID,0,VALID,91.6317,VALID,0,VALID,22.2397,VALID,77,VALID,0.673437,
2011-01-19, 02:40:04,VALID,998.752,VALID,0,VALID,91.6012,VALID,0,VALID,22.2397,VALID,98,VALID,0.743359,
2011-01-19, 02:41:04,VALID,998.753,VALID,0,VALID,91.6394,VALID,0,VALID,22.2397,VALID,107,VALID,0.645312,
2011-01-19, 02:42:04,VALID,998.732,VALID,0,VALID,91.6546,VALID,0,VALID,22.2771,VALID,132,VALID,0.692578,
2011-01-19, 02:43:04,VALID,998.73,VALID,0,VALID,91.708,VALID,0,VALID,22.2364,VALID,145,VALID,1.02578,
2011-01-19, 02:44:04,VALID,998.713,VALID,0,VALID,91.7767,VALID,0.112286,VALID,22.2771,VALID,142,VALID,0.767187,
2011-01-19, 02:45:04,VALID,998.72,VALID,0,VALID,91.792,VALID,0,VALID,22.2576,VALID,142,VALID,0.962891,
2011-01-19, 02:46:04,VALID,998.727,VALID,0,VALID,91.7462,VALID,0,VALID,22.2788,VALID,142,VALID,0.633203,
2011-01-19, 02:47:04,VALID,998.688,VALID,0,VALID,91.6851,VALID,0,VALID,22.2576,VALID,142,VALID,0.292969,
2011-01-19, 02:48:04,VALID,998.714,VALID,0,VALID,91.6317,VALID,0,VALID,22.2364,VALID,136,VALID,0.570313,
2011-01-19, 02:49:04,VALID,998.672,VALID,0,VALID,91.5707,VALID,0,VALID,22.2169,VALID,97,VALID,0.733203,
2011-01-19, 02:50:04,VALID,998.698,VALID,0,VALID,91.5249,VALID,0.112286,VALID,22.2186,VALID,97,VALID,0.459766,
2011-01-19, 02:51:04,VALID,998.728,VALID,0,VALID,91.4257,VALID,0,VALID,22.1974,VALID,97,VALID,0.438281,
2011-01-19, 02:52:04,VALID,998.718,VALID,0,VALID,91.3494,VALID,0,VALID,22.2381,VALID,97,VALID,0.345313,
2011-01-19, 02:53:04,VALID,998.72,VALID,0,VALID,91.2808,VALID,0,VALID,22.2381,VALID,97,VALID,0.219531,
2011-01-19, 02:54:04,VALID,998.752,VALID,0,VALID,91.2274,VALID,0.112286,VALID,22.2381,VALID,97,VALID,0.331641,
2011-01-19, 02:55:04,VALID,998.734,VALID,0,VALID,91.2655,VALID,0.112286,VALID,22.2381,VALID,97,VALID,0.306641,
2011-01-19, 02:56:04,VALID,998.707,VALID,0,VALID,91.2503,VALID,0,VALID,22.2169,VALID,97,VALID,0.675781,
2011-01-19, 02:57:04,VALID,998.651,VALID,0,VALID,91.2655,VALID,0,VALID,22.1974,VALID,97,VALID,1.11211,
2011-01-19, 02:58:04,VALID,998.625,VALID,0,VALID,91.296,VALID,0,VALID,22.2186,VALID,104,VALID,1.32656,
2011-01-19, 02:59:04,VALID,998.592,VALID,0,VALID,91.3571,VALID,0.112286,VALID,22.2169,VALID,107,VALID,1.13945,
2011-01-19, 03:00:04,VALID,998.607,VALID,0,VALID,91.3876,VALID,0.112286,VALID,22.2381,VALID,123,VALID,0.75,
2011-01-19, 03:01:04,VALID,998.586,VALID,0,VALID,91.3723,VALID,0,VALID,22.2381,VALID,130,VALID,0.973047,
2011-01-19, 03:02:04,VALID,998.588,VALID,0,VALID,91.3723,VALID,0,VALID,22.1974,VALID,130,VALID,0.878906,
2011-01-19, 03:03:04,VALID,998.57,VALID,0,VALID,91.3342,VALID,0,VALID,22.1974,VALID,130,VALID,0.944531,
2011-01-19, 03:04:04,VALID,998.551,VALID,0,VALID,91.296,VALID,0,VALID,22.2381,VALID,124,VALID,0.869922,
2011-01-19, 03:05:04,VALID,998.493,VALID,0,VALID,91.3189,VALID,0,VALID,22.2576,VALID,113,VALID,1.35117,
2011-01-19, 03:06:04,VALID,998.495,VALID,0,VALID,91.3494,VALID,0,VALID,22.2576,VALID,111,VALID,1.46797,
2011-01-19, 03:07:04,VALID,998.5,VALID,0,VALID,91.3266,VALID,0,VALID,22.2364,VALID,114,VALID,1.27188,
2011-01-19, 03:08:04,VALID,998.482,VALID,0,VALID,91.3113,VALID,0,VALID,22.2381,VALID,128,VALID,1.21016,
2011-01-19, 03:09:04,VALID,998.525,VALID,0,VALID,91.3189,VALID,0,VALID,22.2397,VALID,128,VALID,1.22148,
2011-01-19, 03:10:04,VALID,998.518,VALID,0,VALID,91.3037,VALID,0,VALID,22.2381,VALID,128,VALID,1.00078,
2011-01-19, 03:11:04,VALID,998.49,VALID,0,VALID,91.3266,VALID,0,VALID,22.2381,VALID,128,VALID,0.946875,
2011-01-19, 03:12:04,VALID,998.497,VALID,0,VALID,91.3647,VALID,0,VALID,22.2397,VALID,121,VALID,0.85625,
2011-01-19, 03:13:04,VALID,998.516,VALID,0,VALID,91.3723,VALID,0,VALID,22.2397,VALID,114,VALID,1.01641,
2011-01-19, 03:14:04,VALID,998.534,VALID,0,VALID,91.4105,VALID,0,VALID,22.2592,VALID,110,VALID,1.0875,
2011-01-19, 03:15:04,VALID,998.524,VALID,0,VALID,91.4563,VALID,0,VALID,22.2592,VALID,106,VALID,1.08633,
2011-01-19, 03:16:04,VALID,998.534,VALID,0,VALID,91.4868,VALID,0,VALID,22.2788,VALID,104,VALID,0.992969,
2011-01-19, 03:17:04,VALID,998.528,VALID,0,VALID,91.5249,VALID,0,VALID,22.2983,VALID,102,VALID,0.838672,
2011-01-19, 03:18:04,VALID,998.561,VALID,0,VALID,91.5707,VALID,0,VALID,22.2983,VALID,101,VALID,0.8,
2011-01-19, 03:19:04,VALID,998.55,VALID,0,VALID,91.5707,VALID,0,VALID,22.2771,VALID,92,VALID,0.661328,
2011-01-19, 03:20:04,VALID,998.551,VALID,0,VALID,91.6012,VALID,0,VALID,22.2983,VALID,92,VALID,0.490234,
2011-01-19, 03:21:04,VALID,998.536,VALID,0,VALID,91.5783,VALID,0,VALID,22.2592,VALID,35,VALID,0.707422,
2011-01-19, 03:22:04,VALID,998.535,VALID,0,VALID,91.586,VALID,0,VALID,22.2592,VALID,7,VALID,0.873438,
2011-01-19, 03:23:04,VALID,998.54,VALID,0,VALID,91.6012,VALID,0,VALID,22.2397,VALID,7,VALID,0.498437,
2011-01-19, 03:24:04,VALID,998.564,VALID,0,VALID,91.6088,VALID,0,VALID,22.2007,VALID,7,VALID,0.425781,
2011-01-19, 03:25:04,VALID,998.57,VALID,0,VALID,91.6623,VALID,0,VALID,22.1812,VALID,7,VALID,0.605078,
2011-01-19, 03:26:04,VALID,998.58,VALID,0,VALID,91.708,VALID,0,VALID,22.1617,VALID,7,VALID,0.695703,
2011-01-19, 03:27:04,VALID,998.571,VALID,0,VALID,91.7385,VALID,0.112286,VALID,22.1795,VALID,7,VALID,0.582031,
2011-01-19, 03:28:04,VALID,998.585,VALID,0,VALID,91.7843,VALID,0,VALID,22.1795,VALID,7,VALID,0.688672,
2011-01-19, 03:29:04,VALID,998.602,VALID,0,VALID,91.7996,VALID,0.112286,VALID,22.1795,VALID,7,VALID,0.539453,
2011-01-19, 03:30:04,VALID,998.63,VALID,0,VALID,91.8759,VALID,0,VALID,22.16,VALID,7,VALID,0.530859,
2011-01-19, 03:31:04,VALID,998.622,VALID,0,VALID,91.9369,VALID,0,VALID,22.16,VALID,7,VALID,0.573828,
2011-01-19, 03:32:04,VALID,998.641,VALID,0,VALID,91.9827,VALID,0,VALID,22.1795,VALID,7,VALID,0.51875,
2011-01-19, 03:33:04,VALID,998.663,VALID,0,VALID,92.0285,VALID,0,VALID,22.199,VALID,7,VALID,0.450391,
2011-01-19, 03:34:04,VALID,998.695,VALID,0,VALID,92.0895,VALID,0,VALID,22.199,VALID,7,VALID,0.518359,
2011-01-19, 03:35:04,VALID,998.686,VALID,0,VALID,92.1277,VALID,0,VALID,22.2169,VALID,7,VALID,0.539453,
2011-01-19, 03:36:04,VALID,998.727,VALID,0,VALID,92.1353,VALID,0,VALID,22.2169,VALID,7,VALID,0.463672,
2011-01-19, 03:37:04,VALID,998.734,VALID,0,VALID,92.1811,VALID,0,VALID,22.2381,VALID,7,VALID,0.625781,
2011-01-19, 03:38:04,VALID,998.762,VALID,0,VALID,92.204,VALID,0,VALID,22.2381,VALID,7,VALID,0.383594,
2011-01-19, 03:39:04,VALID,998.758,VALID,0,VALID,92.2192,VALID,0,VALID,22.2576,VALID,7,VALID,0.277734,
2011-01-19, 03:40:04,VALID,998.781,VALID,0,VALID,92.2574,VALID,0.112286,VALID,22.2559,VALID,7,VALID,0.43125,
2011-01-19, 03:41:04,VALID,998.793,VALID,0,VALID,92.2726,VALID,0,VALID,22.2771,VALID,7,VALID,0.476563,
2011-01-19, 03:42:04,VALID,998.761,VALID,0,VALID,92.2879,VALID,0,VALID,22.2966,VALID,7,VALID,0.414063,
2011-01-19, 03:43:04,VALID,998.773,VALID,0,VALID,92.3108,VALID,0,VALID,22.2966,VALID,7,VALID,0.365625,
2011-01-19, 03:44:04,VALID,998.8,VALID,0,VALID,92.326,VALID,0,VALID,22.2576,VALID,7,VALID,0.212109,
2011-01-19, 03:45:04,VALID,998.807,VALID,0,VALID,92.3337,VALID,0.112286,VALID,22.2771,VALID,7,VALID,0.194531,